Location: Bats
(43.6587°N, 0.4584°W)
Time: 15:38:14
(UTC+00:00)

SJ-12 - Pass Details

Date: 12 January 2026
Orbit: 514 x 525 km, 97.8° (Epoch: 18 February)

Event Time Altitude Azimuth Distance (km) Brightness Sun altitude
Rises 17:55:53 0° 172° (S) 2,642 7.4 -12.2°
Reaches altitude 10° 17:57:59 10° 176° (S) 1,760 6.6 -12.6°
Maximum altitude 18:01:45 66° 258° (WSW) 581 4.2 -13.2°
Drops below altitude 10° 18:05:35 10° 342° (NNW) 1,780 6.4 -13.9°
Sets 18:07:43 0° 345° (NNW) 2,675 7.3 -14.2°
